TimeCDT,TemperatureF,Dew PointF,Humidity,Sea Level PressureIn,VisibilityMPH,Wind Direction,Wind SpeedMPH,Gust SpeedMPH,PrecipitationIn,Events,Conditions,WindDirDegrees,DateUTC
12:53 AM,44.1,41.0,89,29.99,8.0,Calm,Calm,-,N/A,,Clear,0,2013-10-17 05:53:00
1:53 AM,43.0,41.0,93,29.99,7.0,Calm,Calm,-,N/A,,Clear,0,2013-10-17 06:53:00
2:53 AM,43.0,42.1,97,29.98,6.0,Calm,Calm,-,N/A,,Mostly Cloudy,0,2013-10-17 07:53:00
3:53 AM,46.0,44.1,93,29.97,7.0,WSW,3.5,-,N/A,,Overcast,250,2013-10-17 08:53:00
4:53 AM,46.9,44.1,90,29.98,7.0,WNW,5.8,-,0.00,Rain,Light Rain,290,2013-10-17 09:53:00
5:53 AM,46.9,45.0,93,29.97,4.0,Calm,Calm,-,0.03,Rain,Rain,0,2013-10-17 10:53:00
6:53 AM,46.9,46.0,97,29.97,5.0,South,3.5,-,0.03,Rain,Light Rain,180,2013-10-17 11:53:00
7:48 AM,46.4,46.4,100,29.98,5.0,SW,3.5,-,0.02,,Overcast,230,2013-10-17 12:48:00
7:53 AM,46.9,46.0,97,29.99,5.0,WSW,4.6,-,0.02,,Overcast,240,2013-10-17 12:53:00
8:29 AM,48.2,46.4,93,29.99,6.0,SSW,4.6,-,0.01,,Mostly Cloudy,210,2013-10-17 13:29:00
8:46 AM,48.2,46.4,93,29.99,6.0,SSW,5.8,-,0.02,,Overcast,200,2013-10-17 13:46:00
8:53 AM,48.9,46.9,93,29.99,6.0,South,4.6,-,0.02,,Overcast,190,2013-10-17 13:53:00
9:53 AM,52.0,46.9,83,29.99,10.0,SW,8.1,-,0.01,,Overcast,230,2013-10-17 14:53:00
10:17 AM,51.8,46.4,82,29.99,10.0,SW,10.4,-,N/A,,Overcast,230,2013-10-17 15:17:00
10:53 AM,53.1,45.0,74,29.99,10.0,WSW,10.4,-,0.01,,Mostly Cloudy,240,2013-10-17 15:53:00
11:53 AM,55.0,45.0,69,29.98,10.0,West,11.5,-,0.01,,Overcast,260,2013-10-17 16:53:00
12:29 PM,55.4,44.6,67,29.98,10.0,West,15.0,-,N/A,,Overcast,260,2013-10-17 17:29:00
12:53 PM,55.9,45.0,67,29.97,10.0,West,11.5,-,N/A,,Overcast,260,2013-10-17 17:53:00
1:32 PM,55.4,44.6,67,29.97,10.0,West,11.5,-,N/A,,Overcast,270,2013-10-17 18:32:00
1:50 PM,55.4,44.6,67,29.96,9.0,West,11.5,-,N/A,,Overcast,280,2013-10-17 18:50:00
1:53 PM,55.0,45.0,69,29.97,9.0,West,11.5,-,N/A,,Overcast,280,2013-10-17 18:53:00
2:23 PM,55.4,44.6,67,29.96,9.0,West,12.7,-,N/A,,Overcast,260,2013-10-17 19:23:00
2:53 PM,57.0,44.1,62,29.95,8.0,WSW,11.5,-,N/A,,Partly Cloudy,250,2013-10-17 19:53:00
3:53 PM,57.0,44.1,62,29.95,9.0,West,12.7,-,N/A,,Mostly Cloudy,260,2013-10-17 20:53:00
4:53 PM,57.9,43.0,58,29.96,9.0,WSW,11.5,-,N/A,,Scattered Clouds,250,2013-10-17 21:53:00
5:53 PM,55.9,43.0,62,29.96,9.0,WSW,4.6,-,N/A,,Clear,250,2013-10-17 22:53:00
6:53 PM,50.0,43.0,77,29.97,9.0,SSW,4.6,-,N/A,,Clear,200,2013-10-17 23:53:00
7:53 PM,46.0,43.0,89,29.98,8.0,South,4.6,-,N/A,,Clear,190,2013-10-18 00:53:00
8:53 PM,45.0,42.1,90,29.99,7.0,South,5.8,-,N/A,,Clear,180,2013-10-18 01:53:00
9:53 PM,45.0,42.1,90,29.99,6.0,South,4.6,-,N/A,,Clear,170,2013-10-18 02:53:00
10:53 PM,44.1,42.1,93,29.99,5.0,South,4.6,-,0.01,,Clear,180,2013-10-18 03:53:00
11:53 PM,43.0,42.1,97,29.99,4.0,South,4.6,-,N/A,,Clear,180,2013-10-18 04:53:00